Location: Krasnoyarskiy Pitomnik
(51.1333°N, 71.6167°E)
Time: 10:15:20
(UTC+00:00)

Cosmos 1378 Rocket - Pass Details

Date: 22 October 2021
Orbit: 600 x 628 km, 82.5° (Epoch: 06 December)

Event Time Altitude Azimuth Distance (km) Brightness Sun altitude
Exits shadow 23:23:09 51° 178° (S) 794 3.9 -23.6°
Maximum altitude 23:24:15 82° 100° (E) 639 3.6 -23.5°
Drops below altitude 10° 23:28:44 10° 12° (NNE) 2,017 6.4 -22.8°
Sets 23:30:59 0° 12° (NNE) 2,931 7.3 -22.4°
